Time,TemperatureF,DewpointF,PressureIn,WindDirection,WindDirectionDegrees,WindSpeedMPH,WindSpeedGustMPH,Humidity,HourlyPrecipIn,Conditions,Clouds,dailyrainin,SoftwareType,DateUTC
2013-12-26 00:06:00,25.1,24.0,30.14,WSW,249,0.0,2.0,95,0.00,,,0.00,weatherlink.com 1.10,2013-12-26 05:06:00,
2013-12-26 00:21:00,25.2,24.0,30.13,South,173,0.0,1.0,95,0.00,,,0.00,weatherlink.com 1.10,2013-12-26 05:21:00,
2013-12-26 00:36:00,25.4,24.0,30.12,WSW,246,0.0,4.0,95,0.00,,,0.00,weatherlink.com 1.10,2013-12-26 05:36:00,
2013-12-26 00:51:00,25.5,24.0,30.12,West,273,1.0,5.0,95,0.00,,,0.00,weatherlink.com 1.10,2013-12-26 05:51:00,
2013-12-26 01:06:00,25.8,24.0,30.11,SSW,199,0.0,5.0,94,0.00,,,0.00,weatherlink.com 1.10,2013-12-26 06:06:00,
2013-12-26 01:21:00,25.9,24.0,30.11,WSW,241,0.0,2.0,94,0.00,,,0.00,weatherlink.com 1.10,2013-12-26 06:21:00,
2013-12-26 01:36:00,26.0,25.0,30.11,SW,229,0.0,3.0,94,0.00,,,0.00,weatherlink.com 1.10,2013-12-26 06:36:00,
2013-12-26 01:51:00,26.0,25.0,30.10,WSW,250,0.0,3.0,94,0.00,,,0.00,weatherlink.com 1.10,2013-12-26 06:51:00,
2013-12-26 02:06:00,26.0,25.0,30.11,WSW,257,2.0,6.0,95,0.00,,,0.00,weatherlink.com 1.10,2013-12-26 07:06:00,
2013-12-26 02:21:00,25.9,25.0,30.11,West,260,0.0,3.0,95,0.00,,,0.00,weatherlink.com 1.10,2013-12-26 07:21:00,
2013-12-26 02:36:00,26.0,25.0,30.11,West,269,0.0,6.0,95,0.00,,,0.00,weatherlink.com 1.10,2013-12-26 07:36:00,
2013-12-26 02:51:00,26.1,25.0,30.11,SW,231,2.0,3.0,95,0.00,,,0.00,weatherlink.com 1.10,2013-12-26 07:51:00,
2013-12-26 03:06:00,26.2,25.0,30.11,WSW,248,0.0,4.0,94,0.00,,,0.00,weatherlink.com 1.10,2013-12-26 08:06:00,
2013-12-26 03:21:00,26.4,25.0,30.12,WNW,294,1.0,4.0,94,0.00,,,0.00,weatherlink.com 1.10,2013-12-26 08:21:00,
2013-12-26 03:36:00,26.5,25.0,30.12,SE,146,5.0,5.0,93,0.00,,,0.00,weatherlink.com 1.10,2013-12-26 08:36:00,
2013-12-26 03:51:00,26.6,25.0,30.12,West,263,0.0,4.0,93,0.00,,,0.00,weatherlink.com 1.10,2013-12-26 08:51:00,
2013-12-26 04:06:00,26.6,25.0,30.12,West,274,0.0,3.0,93,0.00,,,0.00,weatherlink.com 1.10,2013-12-26 09:06:00,
2013-12-26 04:21:00,26.6,25.0,30.12,West,259,1.0,6.0,93,0.00,,,0.00,weatherlink.com 1.10,2013-12-26 09:21:00,
2013-12-26 04:36:00,26.7,25.0,30.13,West,271,1.0,3.0,93,0.00,,,0.00,weatherlink.com 1.10,2013-12-26 09:36:00,
2013-12-26 04:51:00,26.7,25.0,30.13,SSE,162,1.0,4.0,93,0.00,,,0.00,weatherlink.com 1.10,2013-12-26 09:51:00,
2013-12-26 05:06:00,26.7,25.0,30.13,WNW,298,0.0,6.0,92,0.00,,,0.00,weatherlink.com 1.10,2013-12-26 10:06:00,
2013-12-26 05:22:00,26.7,25.0,30.14,WSW,253,0.0,4.0,91,0.00,,,0.00,weatherlink.com 1.10,2013-12-26 10:22:00,
2013-12-26 05:37:00,26.5,24.0,30.15,WNW,298,2.0,3.0,89,0.00,,,0.00,weatherlink.com 1.10,2013-12-26 10:37:00,
2013-12-26 05:52:00,26.2,23.0,30.15,WNW,285,1.0,7.0,88,0.00,,,0.00,weatherlink.com 1.10,2013-12-26 10:52:00,
2013-12-26 06:07:00,25.9,22.0,30.15,WSW,240,2.0,5.0,86,0.00,,,0.00,weatherlink.com 1.10,2013-12-26 11:07:00,
2013-12-26 06:22:00,25.3,22.0,30.16,WNW,287,1.0,5.0,86,0.00,,,0.00,weatherlink.com 1.10,2013-12-26 11:22:00,
2013-12-26 06:37:00,25.0,22.0,30.16,WSW,248,1.0,3.0,87,0.00,,,0.00,weatherlink.com 1.10,2013-12-26 11:37:00,
2013-12-26 06:52:00,25.2,22.0,30.17,WSW,248,1.0,4.0,87,0.00,,,0.00,weatherlink.com 1.10,2013-12-26 11:52:00,
2013-12-26 07:07:00,25.3,22.0,30.18,West,278,0.0,4.0,87,0.00,,,0.00,weatherlink.com 1.10,2013-12-26 12:07:00,
2013-12-26 07:22:00,25.5,22.0,30.19,NW,321,0.0,5.0,86,0.00,,,0.00,weatherlink.com 1.10,2013-12-26 12:22:00,
2013-12-26 07:37:00,25.7,22.0,30.20,WNW,285,0.0,3.0,85,0.00,,,0.00,weatherlink.com 1.10,2013-12-26 12:37:00,
2013-12-26 07:52:00,25.5,22.0,30.20,North,358,2.0,4.0,85,0.00,,,0.00,weatherlink.com 1.10,2013-12-26 12:52:00,
2013-12-26 08:07:00,25.2,21.0,30.22,WNW,295,0.0,8.0,83,0.00,,,0.00,weatherlink.com 1.10,2013-12-26 13:07:00,
2013-12-26 08:22:00,24.7,20.0,30.22,ENE,64,4.0,6.0,81,0.00,,,0.00,weatherlink.com 1.10,2013-12-26 13:22:00,
2013-12-26 08:37:00,24.5,19.0,30.23,North,11,0.0,4.0,81,0.00,,,0.00,weatherlink.com 1.10,2013-12-26 13:37:00,
2013-12-26 08:52:00,24.3,19.0,30.24,NW,308,0.0,3.0,81,0.00,,,0.00,weatherlink.com 1.10,2013-12-26 13:52:00,
2013-12-26 09:07:00,24.4,19.0,30.25,NNW,338,2.0,4.0,81,0.00,,,0.00,weatherlink.com 1.10,2013-12-26 14:07:00,
2013-12-26 09:22:00,24.5,20.0,30.25,NW,315,0.0,4.0,82,0.00,,,0.00,weatherlink.com 1.10,2013-12-26 14:22:00,
2013-12-26 09:37:00,24.6,20.0,30.25,NNW,330,3.0,4.0,82,0.00,,,0.00,weatherlink.com 1.10,2013-12-26 14:37:00,
2013-12-26 09:52:00,25.0,21.0,30.26,NW,304,2.0,4.0,84,0.00,,,0.00,weatherlink.com 1.10,2013-12-26 14:52:00,
2013-12-26 10:07:00,25.0,21.0,30.27,NW,317,1.0,4.0,85,0.00,,,0.00,weatherlink.com 1.10,2013-12-26 15:07:00,
2013-12-26 10:22:00,25.0,21.0,30.28,NNW,335,4.0,4.0,83,0.00,,,0.00,weatherlink.com 1.10,2013-12-26 15:22:00,
2013-12-26 10:38:00,24.3,21.0,30.29,NW,307,0.0,4.0,88,0.00,,,0.00,weatherlink.com 1.10,2013-12-26 15:38:00,
2013-12-26 10:52:00,24.1,22.0,30.30,NNW,343,0.0,2.0,90,0.00,,,0.00,weatherlink.com 1.10,2013-12-26 15:52:00,
2013-12-26 11:07:00,24.4,22.0,30.30,WNW,293,1.0,4.0,90,0.00,,,0.00,weatherlink.com 1.10,2013-12-26 16:07:00,
2013-12-26 11:22:00,25.8,23.0,30.31,NNW,335,3.0,3.0,87,0.00,,,0.00,weatherlink.com 1.10,2013-12-26 16:22:00,
2013-12-26 11:37:00,26.5,21.0,30.31,WNW,294,0.0,3.0,80,0.00,,,0.00,weatherlink.com 1.10,2013-12-26 16:37:00,
2013-12-26 11:53:00,27.7,21.0,30.30,NW,304,0.0,4.0,75,0.00,,,0.00,weatherlink.com 1.10,2013-12-26 16:53:00,
2013-12-26 12:08:00,27.9,20.0,30.30,NW,318,1.0,6.0,72,0.00,,,0.00,weatherlink.com 1.10,2013-12-26 17:08:00,
2013-12-26 12:23:00,27.2,20.0,30.30,West,267,1.0,6.0,73,0.00,,,0.00,weatherlink.com 1.10,2013-12-26 17:23:00,
2013-12-26 12:38:00,27.3,20.0,30.31,WNW,295,0.0,5.0,75,0.00,,,0.00,weatherlink.com 1.10,2013-12-26 17:38:00,
2013-12-26 12:53:00,27.0,20.0,30.31,West,264,0.0,3.0,75,0.00,,,0.00,weatherlink.com 1.10,2013-12-26 17:53:00,
2013-12-26 13:08:00,26.7,19.0,30.30,WNW,297,0.0,6.0,72,0.00,,,0.00,weatherlink.com 1.10,2013-12-26 18:08:00,
2013-12-26 13:23:00,26.8,20.0,30.30,WSW,250,2.0,6.0,75,0.00,,,0.00,weatherlink.com 1.10,2013-12-26 18:23:00,
2013-12-26 13:38:00,27.5,19.0,30.30,SW,221,1.0,7.0,71,0.00,,,0.00,weatherlink.com 1.10,2013-12-26 18:38:00,
2013-12-26 13:53:00,28.1,20.0,30.30,SW,228,0.0,8.0,71,0.00,,,0.00,weatherlink.com 1.10,2013-12-26 18:53:00,
2013-12-26 14:08:00,27.5,19.0,30.30,SW,219,2.0,5.0,71,0.00,,,0.00,weatherlink.com 1.10,2013-12-26 19:08:00,
2013-12-26 14:23:00,27.8,20.0,30.30,WSW,242,1.0,3.0,72,0.00,,,0.00,weatherlink.com 1.10,2013-12-26 19:23:00,
2013-12-26 14:38:00,28.1,20.0,30.30,West,280,1.0,4.0,71,0.00,,,0.00,weatherlink.com 1.10,2013-12-26 19:38:00,
2013-12-26 14:53:00,28.1,20.0,30.29,South,183,2.0,11.0,72,0.00,,,0.00,weatherlink.com 1.10,2013-12-26 19:53:00,
2013-12-26 15:08:00,27.8,20.0,30.30,SW,235,2.0,5.0,72,0.00,,,0.00,weatherlink.com 1.10,2013-12-26 20:08:00,
2013-12-26 15:23:00,27.0,20.0,30.30,West,273,0.0,5.0,74,0.00,,,0.00,weatherlink.com 1.10,2013-12-26 20:23:00,
2013-12-26 15:38:00,25.9,20.0,30.30,West,277,3.0,8.0,78,0.00,,,0.00,weatherlink.com 1.10,2013-12-26 20:38:00,
2013-12-26 15:53:00,25.3,20.0,30.31,SW,217,3.0,5.0,80,0.00,,,0.00,weatherlink.com 1.10,2013-12-26 20:53:00,
2013-12-26 16:08:00,24.7,20.0,30.31,West,264,0.0,5.0,81,0.00,,,0.00,weatherlink.com 1.10,2013-12-26 21:08:00,
2013-12-26 16:23:00,24.3,19.0,30.31,SSE,165,0.0,5.0,81,0.00,,,0.00,weatherlink.com 1.10,2013-12-26 21:23:00,
2013-12-26 16:38:00,24.0,19.0,30.31,SSW,213,0.0,4.0,82,0.00,,,0.00,weatherlink.com 1.10,2013-12-26 21:38:00,
2013-12-26 16:53:00,23.9,20.0,30.31,East,93,1.0,3.0,83,0.00,,,0.00,weatherlink.com 1.10,2013-12-26 21:53:00,
2013-12-26 17:08:00,23.6,19.0,30.31,WSW,238,0.0,5.0,83,0.00,,,0.00,weatherlink.com 1.10,2013-12-26 22:08:00,
2013-12-26 17:23:00,23.3,20.0,30.31,SSW,207,0.0,6.0,85,0.00,,,0.00,weatherlink.com 1.10,2013-12-26 22:23:00,
2013-12-26 17:38:00,23.1,20.0,30.31,WSW,249,0.0,5.0,86,0.00,,,0.00,weatherlink.com 1.10,2013-12-26 22:38:00,
2013-12-26 17:53:00,23.0,19.0,30.30,SSW,210,2.0,5.0,86,0.00,,,0.00,weatherlink.com 1.10,2013-12-26 22:53:00,
2013-12-26 18:08:00,23.1,20.0,30.30,SSE,153,4.0,4.0,86,0.00,,,0.00,weatherlink.com 1.10,2013-12-26 23:08:00,
2013-12-26 18:23:00,23.1,20.0,30.31,SSW,197,3.0,6.0,86,0.00,,,0.00,weatherlink.com 1.10,2013-12-26 23:23:00,
2013-12-26 18:38:00,23.3,20.0,30.30,SE,146,2.0,5.0,86,0.00,,,0.00,weatherlink.com 1.10,2013-12-26 23:38:00,
2013-12-26 18:53:00,23.4,20.0,30.30,SE,128,0.0,4.0,86,0.00,,,0.00,weatherlink.com 1.10,2013-12-26 23:53:00,
2013-12-26 19:23:00,23.5,20.0,30.30,SSE,160,1.0,3.0,87,0.00,,,0.00,weatherlink.com 1.10,2013-12-27 00:23:00,
2013-12-26 19:38:00,23.7,21.0,30.30,East,88,0.0,3.0,88,0.00,,,0.00,weatherlink.com 1.10,2013-12-27 00:38:00,
2013-12-26 19:53:00,24.0,21.0,30.30,SSE,150,1.0,3.0,88,0.00,,,0.00,weatherlink.com 1.10,2013-12-27 00:53:00,
2013-12-26 20:08:00,24.4,21.0,30.30,SSE,147,1.0,2.0,88,0.00,,,0.00,weatherlink.com 1.10,2013-12-27 01:08:00,
2013-12-26 20:23:00,24.6,22.0,30.29,SW,217,1.0,4.0,88,0.00,,,0.00,weatherlink.com 1.10,2013-12-27 01:23:00,
2013-12-26 20:38:00,24.8,22.0,30.29,SSW,205,0.0,3.0,88,0.00,,,0.00,weatherlink.com 1.10,2013-12-27 01:38:00,
2013-12-26 20:53:00,25.1,22.0,30.29,SW,232,1.0,2.0,89,0.00,,,0.00,weatherlink.com 1.10,2013-12-27 01:53:00,
2013-12-26 21:08:00,25.9,23.0,30.28,SW,224,2.0,3.0,88,0.00,,,0.00,weatherlink.com 1.10,2013-12-27 02:08:00,
2013-12-26 21:23:00,26.2,23.0,30.29,SSW,198,0.0,2.0,88,0.00,,,0.00,weatherlink.com 1.10,2013-12-27 02:23:00,
2013-12-26 21:38:00,26.6,24.0,30.29,SW,226,1.0,4.0,90,0.00,,,0.00,weatherlink.com 1.10,2013-12-27 02:38:00,
2013-12-26 21:53:00,27.0,25.0,30.29,SW,232,0.0,2.0,90,0.00,,,0.00,weatherlink.com 1.10,2013-12-27 02:53:00,
2013-12-26 22:08:00,27.2,25.0,30.28,South,177,0.0,3.0,90,0.00,,,0.00,weatherlink.com 1.10,2013-12-27 03:08:00,
2013-12-26 22:23:00,27.5,25.0,30.28,SE,125,1.0,1.0,91,0.00,,,0.00,weatherlink.com 1.10,2013-12-27 03:23:00,
2013-12-26 22:38:00,27.9,26.0,30.28,SSW,212,0.0,3.0,91,0.00,,,0.00,weatherlink.com 1.10,2013-12-27 03:38:00,
2013-12-26 22:53:00,28.4,26.0,30.28,SW,236,0.0,3.0,91,0.00,,,0.00,weatherlink.com 1.10,2013-12-27 03:53:00,
2013-12-26 23:08:00,28.9,26.0,30.27,SW,228,0.0,4.0,90,0.00,,,0.00,weatherlink.com 1.10,2013-12-27 04:08:00,
2013-12-26 23:23:00,29.2,26.0,30.27,WSW,255,0.0,3.0,89,0.00,,,0.00,weatherlink.com 1.10,2013-12-27 04:23:00,
2013-12-26 23:38:00,29.8,26.0,30.27,NW,312,0.0,4.0,87,0.00,,,0.00,weatherlink.com 1.10,2013-12-27 04:38:00,
2013-12-26 23:53:00,30.1,26.0,30.27,West,259,1.0,3.0,86,0.00,,,0.00,weatherlink.com 1.10,2013-12-27 04:53:00,